User: anonymous   Login
Location: Unspecified
(0.0000°N, 0.0000°E)
Time: 02:41:52
(UTC+00:00)
Language:

FAST 1 (USA 222) - Orbit

View from above orbital plane
View from above orbital plane
View from above satellite
View from above satellite

Ground track
Ground track

The orbit data is extracted from the following two-line orbital elements,

1 37227U 10062F   12152.71696804 0.00000650  00000-0  91775-4 0    09
2 37227  71.9659 348.3000 0015573 346.2559  13.7441 14.77064486    00
Epoch (UTC): 31 May 2012 17:12:26
Eccentricity: 0.0015573
inclination: 71.9659°
perigee height: 627 km
apogee height: 649 km
right ascension of ascending node: 348.3000°
argument of perigee: 346.2559°
revolutions per day: 14.77064486
mean anomaly at epoch: 13.7441°
orbit number at epoch: 0

The dashed part of the orbit path shows where the satellite is in the earth's shadow,  

DLR